Location: Newark
(51.2625°N, 13.3939°E)
Time: 18:23:56
(UTC+00:00)

Explorer 7 - Pass Details

Date: 12 November 2019
Orbit: 485 x 680 km, 50.3° (Epoch: 10 December)

Event Time Altitude Azimuth Distance (km) Brightness Sun altitude
Rises 01:52:04 0° 217° (SW) 2,842 - -40.9°
Reaches altitude 10° 01:54:40 10° 205° (SSW) 1,905 - -40.5°
Maximum altitude 01:58:19 27° 148° (SSE) 1,106 - -40.0°
Drops below altitude 10° 02:01:48 10° 90° (E) 1,809 - -39.5°
Exits shadow 02:02:38 - 85° (E) 2,095 10.5 -39.4°
Sets 02:04:12 0° 78° (ENE) 2,670 11.2 -39.2°
